STARLINK-30299 (57650 NORAD) Tracking and Keplerian Element Data

This shows tracking and keplerian element data for the satellite.

Feedback or suggestion? Click here.




ElementValue
Catalog57650
NameSTARLINK-30299
Epoch Orbit279
Epoch Day238.91667824
Epoch Year2023
RAAN95.9232
Inclination43.0012
Eccentricity0.0005156
Argument of Perigee161.8347
Mean Anonmoly263.9669
Mean Motion15.86070274
Decay Rate-0.00853209
L11 57650U 23122U 23238.91667824 -.00853209 00000+0 -36645-2 0 9998
L22 57650 43.0012 95.9232 0005156 161.8347 263.9669 15.86070274 2791



Live tracking and technical data element details for STARLINK-30299 (NORAD 57650). STARLINK-30299 can be tracked NOW for your location showing map with azimuth and elevation plus other details from your city location.







IsCatalogInMostPopularTable: catalog: 57650, numindb: 6
Update: records affected: 1



GetName: 57650 STARLINK-30299

Hit Count: updated at: Tue, 26 Sep 2023 12:21:47 GMT